Location: Byszew
(52.1813°N, 19.2693°E)
Time: 20:40:31
(UTC+00:00)

USA 234 - Pass Details

Date: 03 March 2021
Orbit: 1102 x 1105 km, 123.0° (Epoch: 16 April)

Event Time Altitude Azimuth Distance (km) Brightness Sun altitude
Exits shadow 19:39:57 72° 76° (ENE) 1,156 3.1 -29.4°
Maximum altitude 19:40:42 85° 151° (SSE) 1,112 3.1 -29.5°
Drops below altitude 10° 19:47:16 10° 241° (WSW) 2,959 5.8 -30.4°
Sets 19:49:44 0° 242° (WSW) 3,916 6.5 -30.7°
